Weather History for Big Piney, WY

Change the Weather History Date:

Sunday, July 21, 2013

  Actual Average Record
Temperature  
Mean Temperature 66 °F 63 °F  
Max Temperature 90 °F 82 °F 93 °F (2005)
Min Temperature 42 °F 44 °F 31 °F (1987)
Degree Days  
Heating Degree Days 0 3  
Month to date heating degree days 9 85  
Since 1 June heating degree days 226 390  
Since 1 July heating degree days 9 85  
Cooling Degree Days 1 1  
Month to date cooling degree days 52 13  
Year to date cooling degree days 72 15  
Since 1 June cooling degree days 72 15  
Growing Degree Days 16 (Base 50)    
Moisture  
Dew Point 17 °F    
Average Humidity 31    
Maximum Humidity 58    
Minimum Humidity 4    
Precipitation  
Precipitation 0.00 in 0.03 in 0.31 in (2010)
Month to date precipitation 0.54 0.43  
Year to date precipitation 2.24 3.69  
Sea Level Pressure  
Sea Level Pressure 29.83 in    
Wind  
Wind Speed 10 mph (NNW)    
Max Wind Speed 25 mph    
Max Gust Speed 32 mph    
Visibility 10 miles    
Events      
T = Trace of Precipitation, MM = Missing Value Source: NWS Daily Summary

Daily Weather History Graph

Daily Weather History Graph

Search for Another Location

Airport:

Trip Planner

Search our weather history database for the weather conditions in past years. The results will help you decide how hot, cold, wet, or windy it might be!

Date:

Astronomy

Jul. 21, 2013 Rise Set
Actual Time 6:01 AM MDT 8:51 PM MDT
Civil Twilight 5:28 AM MDT 9:24 PM MDT
Nautical Twilight 4:46 AM MDT 10:06 PM MDT
Astronomical Twilight 3:58 AM MDT 10:54 PM MDT
Moon 7:51 PM MDT (7/21) 4:52 AM MDT (7/21)
Length of Visible Light 15h 55m
Length of Day
14h 49m
Waxing Gibbous, 98% of the Moon is Illuminated
Jul 21
Waxing Gibbous
Jul 22
Full
Jul 29
Last Quarter
Aug 6
New
Aug 14
First Quarter

Hourly Weather History & Observations

Time (MDT) Temp. Windchill Dew Point Humidity Pressure Visibility Wind Dir Wind Speed Gust Speed Precip Events Conditions
12:53 AM 51.1 °F - 30.0 °F 44% 29.83 in 10.0 mi Calm Calm - N/A   Clear
1:53 AM 50.0 °F - 28.9 °F 44% 29.82 in 10.0 mi Calm Calm - N/A   Clear
2:53 AM 48.0 °F - 25.0 °F 41% 29.83 in 10.0 mi East 4.6 mph - N/A   Clear
3:53 AM 45.0 °F - 21.9 °F 40% 29.83 in 10.0 mi Calm Calm - N/A   Clear
4:53 AM 45.0 °F 41.2 °F 30.0 °F 56% 29.83 in 10.0 mi East 6.9 mph - N/A   Clear
5:53 AM 44.1 °F 40.1 °F 27.0 °F 51% 29.84 in 10.0 mi ENE 6.9 mph - N/A   Clear
6:53 AM 48.0 °F - 26.1 °F 42% 29.84 in 10.0 mi Calm Calm - N/A   Clear
7:53 AM 55.0 °F - 28.9 °F 37% 29.84 in 10.0 mi Calm Calm - N/A   Clear
8:53 AM 64.9 °F - 28.9 °F 26% 29.83 in 10.0 mi ENE 8.1 mph - N/A   Clear
9:53 AM 70.0 °F - 28.9 °F 22% 29.85 in 10.0 mi East 6.9 mph - N/A   Clear
10:53 AM 79.0 °F - 26.1 °F 14% 29.82 in 10.0 mi Variable 3.5 mph - N/A   Clear
11:53 AM 84.9 °F - 9.0 °F 6% 29.81 in 10.0 mi NW 15.0 mph 21.9 mph N/A   Clear
12:53 PM 87.1 °F - 9.0 °F 5% 29.81 in 10.0 mi NW 12.7 mph 20.7 mph N/A   Clear
1:53 PM 87.1 °F - 3.0 °F 4% 29.81 in 10.0 mi WNW 17.3 mph - N/A   Clear
2:53 PM 88.0 °F - 3.0 °F 4% 29.81 in 10.0 mi NW 21.9 mph 28.8 mph N/A   Clear
3:53 PM 88.0 °F - 3.9 °F 4% 29.82 in 10.0 mi NW 20.7 mph 28.8 mph N/A   Clear
4:53 PM 88.0 °F - 6.1 °F 5% 29.81 in 10.0 mi WNW 21.9 mph 32.2 mph N/A   Clear
5:53 PM 86.0 °F - 10.0 °F 6% 29.82 in 10.0 mi NNW 17.3 mph 25.3 mph N/A   Clear
6:53 PM 84.0 °F - 6.1 °F 5% 29.81 in 10.0 mi NW 17.3 mph - N/A   Clear
7:53 PM 78.1 °F - 14.0 °F 9% 29.82 in 10.0 mi NW 12.7 mph - N/A   Clear
8:53 PM 70.0 °F - 8.1 °F 9% 29.82 in 10.0 mi North 11.5 mph - N/A   Clear
9:53 PM 62.1 °F - 10.0 °F 13% 29.86 in 10.0 mi NNW 10.4 mph - N/A   Clear
10:53 PM 59.0 °F - 17.1 °F 20% 29.85 in 10.0 mi NNW 12.7 mph - N/A   Clear
11:53 PM 55.9 °F - 15.1 °F 20% 29.84 in 10.0 mi North 12.7 mph - N/A   Clear